SCP
0 0 0 0 0 0 0 0 0 0 0 0 0 0 0 0 0 0 0 0 0 0 0 0 0 0 0 0 0 0 0 0 0 0 0 0 0 0 0 0 0 0 -0 -0
0 0 0 0 0 0 0 0 0 0 0 0 0 0 0 0 0 0 0 0 0 0 0 0 0 0 0 0 0 0 0 0 0 0 0 0 0 0 0 0 0 0 0 0
0 0 0 0 0 0 0 0 0 0 0 0 0 0 0 0 0 0 0 0 0 0 0 0 0 0 0 0 0 0 0 0 0 0 0 0 0 0 0 0 0 0 0 0
0 0 0 0 0 0 0 0 0 0 0 0 0 0 0 0 0 0 0 0 0 0 -0 -0 0 0 0 0 0 0 0 0 0 0 0 0 0 0 0 0 0 0 0 0
0 0 0 0 0 0 0 0 0 0 0 0 0 0 0 0 -0 -0 -0 0 -0 0 0 -0 0 0 0 0 0 0 0 0 0 0 0 0 0 0 0 0 0 0 0 0
0 0 0 0 0 0 0 0 0 0 0 -0 -0 -0 -0 -0 -0 -0 -0 -0 -0 -0 0 0 0 0 0 0 0 0 0 0 0 0 0 0 0 0 0 0 0 0 0 0
0 0 0 0 0 0 0 0 0 0 -0 -0 -0 -0 -0 -0 -0 -0 -0 -0 -0 -0 0 0 0 0 0 0 0 0 0 0 0 0 0 0 0 0 0 0 0 0 0 0
0 0 0 0 0 0 0 0 0 0 -0 -0 -0 -0 -0 -0 -0 -0 -0 -0 -0 -0 -0 0 0 0 0 0 0 0 0 0 0 0 0 0 0 0 0 0 0 0 0 0
0 0 0 0 0 0 0 0 0 0 -0 -0 -0 -0 -0 -0 -0 -0 -0 -0 -0 -0 -0 0 0 0 0 0 0 0 0 0 0 0 0 0 0 0 0 0 0 0 0 0
0 0 0 0 0 0 0 0 0 0 -0 -0 -0 -0 -0 -0 -0 0 -0 -0 -0 -0 -0 0 0 0 0 0 0 0 0 0 0 0 0 0 0 0 0 0 0 0 0 0
0 0 0 0 0 0 0 0 0 0 -0 -0 -0 -0 0 0 0 0 0 -0 -0 -0 0 0 0 0 0 0 0 0 0 0 0 0 0 0 0 0 0 0 0 0 0 0
0 0 0 0 0 0 0 0 -0 -0 -0 -0 -0 -0 0 0 0 0 0 -0 -0 0 -0 0 0 0 0 0 0 0 0 0 0 0 0 0 0 0 0 0 0 0 0 0
0 0 0 0 0 0 0 -0 -0 -0 -0 -0 -0 -0 0 0 0 -0 -0 -0 0 0 0 0 0 0 0 0 0 0 0 0 0 0 0 0 0 0 0 0 0 0 0 0
0 0 0 0 0 0 -0 -0 -0 -0 -0 -0 0 0 0 -0 -0 -0 -0 0 0 0 0 0 0 0 0 0 0 0 0 0 0 0 0 0 0 0 0 0 0 0 0 0
0 0 0 0 0 0 0 0 -0 -0 -0 -0 0 0 -0 -0 -0 -0 -0 -0 0 0 0 0 0 0 0 0 0 0 0 0 0 0 0 -0 0 0 -0 0 0 0 0 0
0 0 0 0 0 0 0 0 -0 -0 0 0 0 -0 -0 -0 -0 -0 -0 -0 0 0 0 0 0 0 0 0 0 0 0 0 0 0 -0 0 0 0 0 0 0 0 0 0
0 0 0 0 0 -0 -0 -0 -0 -0 0 -0 -0 -0 -0 -0 -0 -0 -0 0 0 0 0 0 0 0 0 0 0 0 0 0 0 0 0 -0 0 0 0 0 0 0 0 0
0 0 0 0 -0 -0 -0 -0 -0 -0 0 -0 -0 -0 -0 -0 -0 -0 -0 -0 0 0 0 0 0 0 0 0 0 0 0 0 0 0 0 -0 -0 -0 0 0 0 0 0 0
0 0 0 0 -0 -0 -0 -0 -0 -0 -0 0 -0 -0 -0 -0 -0 -0 -0 0 0 0 0 0 0 0 0 0 0 0 0 0 0 0 0 0 -0 -0 -0 0 0 0 0 0
0 0 0 -0 -0 -0 -0 -0 -0 -0 -0 0 -0 -0 -0 -0 -0 -0 -0 -0 0 0 0 0 0 0 0 0 0 0 0 0 0 0 0 0 0 -0 0 -0 0 0 0 0
0 0 -0 -0 -0 0 -0 -0 -0 -0 -0 0 -0 -0 -0 -0 -0 -0 -0 0 0 0 0 -0 0 0 0 0 0 0 0 0 0 0 0 0 0 0 -0 0 0 0 0 0
-0 0 -0 -0 0 0 -0 0 -0 -0 -0 -0 -0 -0 -0 -0 -0 -0 0 -0 0 -0 0 0 0 0 0 0 0 0 0 0 0 0 0 0 0 0 -0 -0 0 0 0 0
0 0 0 0 0 -0 -0 -0 -0 -0 -0 -0 -0 -0 -0 -0 -0 -0 -0 -0 0 -0 0 0 -0 -0 0 0 0 0 0 0 0 0 0 0 0 0 0 -0 -0 0 0 0
0 0 0 0 -0 0 -0 -0 -0 -0 0 0 0 -0 -0 -0 -0 -0 -0 -0 0 0 -0 0 -0 -0 0 0 0 0 0 0 0 0 0 0 0 0 0 0 -0 0 0 0
-0 -0 -0 -0 -0 -0 -0 -0 -0 -0 -0 -0 -0 -0 0 -0 -0 -0 -0 -0 -0 -0 -0 -0 -0 -0 0 0 0 0 0 0 0 0 0 0 0 0 0 0 0 0 0 0
-0 -0 -0 -0 0 -0 -0 -0 0 0 -0 -0 -0 -0 -0 -0 -0 -0 -0 -0 -0 -0 -0 -0 -0 0 0 0 0 0 0 0 0 0 0 0 0 0 0 0 0 0 0 0
-0 -0 -0 -0 -0 0 0 0 0 -0 -0 -0 -0 -0 -0 -0 -0 -0 -0 -0 -0 -0 -0 -0 -0 0 0 0 0 0 0 0 -0 0 0 0 0 0 0 0 0 0 0 0
Wind_Speed_500mb
6 11 9 12 16 16 20 20 19 17 21 25 6 8 11 28 25 27 31 38 46 53 61 67 72 77 80 83 87 92 95 97 100 97 91 87 74 59 50 51 61 59 59 64
6 12 12 16 24 23 26 30 30 18 28 10 8 18 25 32 16 27 31 39 49 61 69 72 74 76 79 84 92 97 106 117 122 120 118 114 111 104 86 71 55 54 57 59
8 8 14 15 12 20 14 10 12 13 5 5 7 13 22 29 24 32 38 50 64 72 72 75 77 80 89 98 99 94 92 94 93 92 92 89 87 84 83 84 64 54 51 52
6 5 5 9 12 16 23 18 16 14 11 10 13 36 43 3 44 66 64 65 68 67 72 84 98 112 115 110 96 82 80 80 80 80 77 70 68 67 64 65 79 76 52 52
5 4 13 3 9 7 7 4 8 8 8 10 33 33 10 24 54 54 55 58 66 87 102 108 106 93 87 82 79 77 77 74 69 51 70 74 64 48 48 58 63 59 56 52
6 5 8 1 12 23 10 4 5 7 6 9 24 17 13 59 67 65 69 84 91 100 91 83 81 77 77 77 78 78 75 74 69 66 56 69 60 59 60 60 54 55 73 51
8 7 12 6 16 21 4 6 18 15 20 22 6 14 51 67 71 77 87 90 88 82 75 76 75 73 74 73 75 73 68 65 67 68 63 60 51 46 49 47 54 53 45 54
6 6 12 12 5 3 5 19 17 22 23 29 39 53 54 67 76 73 85 85 70 73 75 75 69 67 72 74 72 69 65 63 61 58 52 45 46 49 38 41 45 49 36 34
6 3 8 22 14 9 14 14 17 26 29 38 43 50 63 67 66 76 74 71 73 72 77 73 68 65 72 68 62 61 62 61 57 49 45 40 41 34 37 38 42 46 30 36
3 3 2 14 4 15 10 16 18 25 28 32 49 52 59 67 66 76 71 73 74 73 72 75 68 64 60 59 56 59 57 52 46 40 38 30 31 28 39 37 36 51 31 29
4 4 9 2 7 7 15 17 27 27 36 44 52 54 57 68 71 71 68 69 65 64 67 69 65 62 58 54 52 48 53 41 36 35 29 27 26 28 32 36 33 38 28 26
4 12 14 1 15 17 22 27 33 38 48 55 50 57 58 61 60 62 64 60 59 59 61 60 58 55 52 46 36 39 42 36 36 30 29 24 24 23 18 26 27 27 33 27
11 7 11 28 26 22 28 31 35 43 51 52 52 52 53 58 59 55 53 52 53 56 53 51 50 50 49 43 36 33 35 33 32 23 24 18 19 16 16 18 36 22 34 33
5 12 22 19 21 24 28 31 44 45 49 50 51 54 56 59 58 52 51 50 49 46 46 46 45 41 39 39 39 36 35 30 26 23 18 13 14 4 10 17 26 34 38 36
30 28 35 27 22 29 28 37 53 56 57 65 59 61 62 63 60 54 50 48 46 43 46 46 42 40 39 37 35 34 31 29 27 22 13 11 10 10 5 33 17 36 35 31
29 28 21 22 25 28 30 39 49 55 58 70 64 65 67 65 59 56 54 53 52 51 50 46 40 38 36 35 35 31 28 28 22 22 18 8 10 22 33 20 22 30 27 27
24 28 23 23 25 29 31 29 36 55 61 59 67 69 69 67 64 64 62 64 54 47 48 45 40 34 30 29 28 29 24 21 13 17 17 15 10 12 21 22 20 19 16 16
22 25 20 23 21 22 29 35 34 49 68 54 55 66 71 72 70 69 66 70 67 62 53 45 39 32 27 26 25 27 25 21 15 7 8 9 11 9 8 11 14 15 15 13
24 25 23 21 22 22 22 35 33 47 62 64 68 68 67 67 68 70 69 74 78 78 68 54 44 34 28 25 22 22 23 19 14 11 2 6 10 10 16 17 18 18 16 17
22 21 18 18 19 23 21 36 33 30 51 65 68 78 78 70 69 72 74 71 73 68 65 58 53 48 36 33 28 21 15 15 15 14 11 8 7 8 14 18 22 26 29 27
22 19 17 18 18 19 20 35 31 32 39 62 57 69 83 84 71 70 74 76 75 73 71 68 59 54 46 36 32 29 24 17 10 10 12 9 16 16 16 15 17 18 19 24
23 20 19 17 20 19 19 35 31 32 37 59 62 56 75 91 88 75 70 69 68 69 70 70 65 54 48 43 39 35 31 27 23 16 12 10 4 7 17 20 23 22 21 21
23 21 20 21 24 20 14 36 35 32 30 57 60 54 55 72 86 85 78 73 71 68 67 67 64 62 59 56 52 48 42 35 32 27 23 21 15 9 11 12 18 22 25 23
19 20 20 23 22 30 16 38 34 33 30 46 56 52 53 53 76 82 72 68 68 72 71 70 67 68 70 67 64 58 54 48 40 34 28 23 19 12 6 7 12 17 21 24
22 18 22 24 26 28 24 33 31 27 36 41 55 53 51 46 59 77 80 73 70 71 73 74 74 73 73 74 71 66 63 56 52 43 36 34 30 22 13 4 5 12 17 21
19 21 22 21 28 25 26 28 32 28 33 41 51 53 50 51 45 67 77 78 72 70 72 73 75 76 74 73 73 72 70 66 60 55 47 43 38 30 21 13 4 4 10 13
24 20 21 22 22 27 24 29 36 32 31 42 48 53 52 51 52 62 73 78 72 69 69 69 71 72 74 73 73 74 74 72 68 62 57 52 45 41 30 22 13 5 1 6
Wind_Direction_500mb
301 297 304 279 274 258 236 220 219 244 233 253 191 65 22 18 39 23 6 352 345 339 332 326 321 316 310 305 302 300 299 296 294 291 287 285 280 277 279 289 289 293 294 300
285 282 307 307 275 267 262 251 255 247 255 25 58 25 8 7 37 12 358 345 335 326 322 319 315 309 305 302 301 300 296 296 295 293 287 284 282 280 275 277 292 286 290 295
254 18 339 299 247 249 246 281 228 236 97 2 357 360 338 355 16 357 340 330 326 323 316 311 308 304 302 302 301 297 292 290 288 286 287 287 284 282 275 273 276 281 281 290
270 353 224 233 349 98 96 60 49 61 43 33 350 331 321 18 354 336 329 323 317 311 307 306 305 305 305 301 300 295 292 289 287 287 285 282 284 280 269 265 260 269 273 279
189 217 287 33 24 12 9 111 30 58 7 343 340 326 306 341 329 325 318 311 309 308 309 307 306 309 309 305 300 298 294 293 293 280 289 287 285 280 273 261 258 253 261 269
173 197 237 209 348 335 348 202 335 24 328 321 354 347 298 327 326 319 313 313 315 313 312 313 312 310 307 304 302 300 298 295 293 294 282 288 284 276 275 269 272 269 241 257
193 219 281 299 316 316 179 263 335 359 2 345 325 286 312 318 315 314 315 317 318 316 309 309 314 317 312 311 305 308 307 297 291 292 290 286 284 278 276 270 260 261 249 241
187 215 254 350 19 96 298 324 348 356 359 342 329 325 319 315 318 317 318 321 316 313 317 323 326 324 316 310 314 312 310 307 300 298 293 284 278 275 269 265 259 249 258 236
217 242 99 69 70 11 317 325 11 360 349 337 329 325 322 319 316 319 321 316 324 326 325 326 328 324 315 319 322 319 311 306 303 301 296 283 282 269 263 259 253 226 256 234
210 79 186 140 38 326 10 26 16 357 352 339 333 329 320 318 320 321 323 328 332 330 328 326 330 328 324 322 323 322 315 307 305 300 302 289 283 272 256 259 246 236 244 230
219 135 167 245 292 72 49 31 7 5 351 345 338 332 327 323 326 325 330 331 330 329 327 328 332 331 330 326 317 317 321 314 312 311 312 294 293 269 252 238 233 229 219 216
178 170 199 7 86 79 52 36 16 5 355 348 341 333 335 330 330 333 330 332 332 332 333 334 336 339 343 338 330 331 320 326 323 315 317 297 319 275 248 237 234 223 222 195
187 187 100 106 86 51 38 33 18 11 3 352 347 345 343 341 343 336 339 337 337 336 339 342 347 357 5 1 353 346 340 337 328 305 352 316 298 286 237 235 196 205 178 191
205 140 81 90 81 44 35 31 20 20 6 2 358 358 356 355 352 349 347 345 343 346 349 352 358 6 8 2 358 356 352 346 341 333 324 314 351 173 223 214 205 144 166 163
101 105 118 100 57 39 41 31 26 18 12 11 11 10 9 4 359 358 358 356 356 359 0 2 4 5 3 4 4 358 358 3 353 356 349 358 10 180 135 180 181 152 152 146
103 109 93 65 64 54 49 36 28 15 18 13 14 16 14 11 7 10 11 12 7 7 5 3 7 4 6 10 3 359 9 5 10 26 20 61 80 43 153 134 123 137 153 156
114 110 100 90 80 55 47 37 27 24 20 18 14 20 17 11 10 13 17 19 20 14 9 5 4 6 5 5 9 1 4 14 33 27 42 64 95 72 115 176 207 201 167 135
122 118 102 105 84 59 43 32 32 29 20 21 19 24 20 16 16 14 17 15 20 22 17 12 6 4 359 360 8 8 6 8 12 19 52 115 113 127 158 171 192 205 206 193
111 99 103 80 61 53 41 26 37 33 20 24 28 26 24 19 21 20 22 18 22 19 14 13 6 7 5 358 353 358 2 4 358 7 349 236 225 211 210 211 228 235 233 229
102 95 96 74 57 44 42 25 38 25 19 20 28 29 26 23 24 24 25 22 25 19 16 15 14 12 8 2 354 347 336 350 341 328 325 290 266 255 236 233 235 241 244 243
109 103 107 80 63 49 47 32 34 27 25 20 28 28 29 26 27 26 21 22 24 23 24 22 19 17 14 14 13 5 4 353 326 341 11 294 270 261 251 243 237 237 243 241
109 101 91 77 62 51 55 38 35 33 27 23 25 27 27 27 25 29 29 23 24 26 27 27 25 23 21 25 28 22 16 13 13 7 355 318 325 280 251 251 241 238 234 232
100 99 85 68 60 59 82 37 35 35 29 24 23 25 29 25 25 24 22 23 29 29 31 32 31 30 31 31 31 30 28 26 23 23 17 9 3 307 272 263 243 238 237 232
110 91 91 70 63 56 85 39 36 36 33 22 24 23 24 19 23 24 25 24 29 33 34 34 34 37 34 32 32 33 32 31 31 28 24 17 10 5 326 261 236 231 235 239
91 96 81 73 58 51 64 45 39 40 35 26 24 24 24 25 19 19 22 23 24 29 32 35 36 36 37 36 34 32 32 31 31 30 27 24 19 16 18 6 231 224 224 228
83 82 73 85 58 44 53 48 43 43 33 30 24 24 22 25 17 17 20 20 22 26 29 31 34 35 37 37 36 34 34 32 31 31 31 30 24 19 23 28 36 205 224 230
84 74 69 76 53 39 47 53 45 44 33 27 24 25 23 23 17 14 15 18 20 21 26 28 30 33 34 35 36 34 33 35 34 31 32 31 28 25 22 23 21 21 207 210
Wind_Speed_850mb
6 11 9 12 16 16 20 20 19 17 21 25 6 8 11 28 25 27 31 38 46 53 61 67 72 77 80 83 87 92 95 97 100 97 91 87 74 59 50 51 61 59 59 64
6 12 12 16 24 23 26 30 30 18 28 10 8 18 25 32 16 27 31 39 49 61 69 72 74 76 79 84 92 97 106 117 122 120 118 114 111 104 86 71 55 54 57 59
8 8 14 15 12 20 14 10 12 13 5 5 7 13 22 29 24 32 38 50 64 72 72 75 77 80 89 98 99 94 92 94 93 92 92 89 87 84 83 84 64 54 51 52
6 5 5 9 12 16 23 18 16 14 11 10 13 36 43 3 44 66 64 65 68 67 72 84 98 112 115 110 96 82 80 80 80 80 77 70 68 67 64 65 79 76 52 52
5 4 13 3 9 7 7 4 8 8 8 10 33 33 10 24 54 54 55 58 66 87 102 108 106 93 87 82 79 77 77 74 69 51 70 74 64 48 48 58 63 59 56 52
6 5 8 1 12 23 10 4 5 7 6 9 24 17 13 59 67 65 69 84 91 100 91 83 81 77 77 77 78 78 75 74 69 66 56 69 60 59 60 60 54 55 73 51
8 7 12 6 16 21 4 6 18 15 20 22 6 14 51 67 71 77 87 90 88 82 75 76 75 73 74 73 75 73 68 65 67 68 63 60 51 46 49 47 54 53 45 54
6 6 12 12 5 3 5 19 17 22 23 29 39 53 54 67 76 73 85 85 70 73 75 75 69 67 72 74 72 69 65 63 61 58 52 45 46 49 38 41 45 49 36 34
6 3 8 22 14 9 14 14 17 26 29 38 43 50 63 67 66 76 74 71 73 72 77 73 68 65 72 68 62 61 62 61 57 49 45 40 41 34 37 38 42 46 30 36
3 3 2 14 4 15 10 16 18 25 28 32 49 52 59 67 66 76 71 73 74 73 72 75 68 64 60 59 56 59 57 52 46 40 38 30 31 28 39 37 36 51 31 29
4 4 9 2 7 7 15 17 27 27 36 44 52 54 57 68 71 71 68 69 65 64 67 69 65 62 58 54 52 48 53 41 36 35 29 27 26 28 32 36 33 38 28 26
4 12 14 1 15 17 22 27 33 38 48 55 50 57 58 61 60 62 64 60 59 59 61 60 58 55 52 46 36 39 42 36 36 30 29 24 24 23 18 26 27 27 33 27
11 7 11 28 26 22 28 31 35 43 51 52 52 52 53 58 59 55 53 52 53 56 53 51 50 50 49 43 36 33 35 33 32 23 24 18 19 16 16 18 36 22 34 33
5 12 22 19 21 24 28 31 44 45 49 50 51 54 56 59 58 52 51 50 49 46 46 46 45 41 39 39 39 36 35 30 26 23 18 13 14 4 10 17 26 34 38 36
30 28 35 27 22 29 28 37 53 56 57 65 59 61 62 63 60 54 50 48 46 43 46 46 42 40 39 37 35 34 31 29 27 22 13 11 10 10 5 33 17 36 35 31
29 28 21 22 25 28 30 39 49 55 58 70 64 65 67 65 59 56 54 53 52 51 50 46 40 38 36 35 35 31 28 28 22 22 18 8 10 22 33 20 22 30 27 27
24 28 23 23 25 29 31 29 36 55 61 59 67 69 69 67 64 64 62 64 54 47 48 45 40 34 30 29 28 29 24 21 13 17 17 15 10 12 21 22 20 19 16 16
22 25 20 23 21 22 29 35 34 49 68 54 55 66 71 72 70 69 66 70 67 62 53 45 39 32 27 26 25 27 25 21 15 7 8 9 11 9 8 11 14 15 15 13
24 25 23 21 22 22 22 35 33 47 62 64 68 68 67 67 68 70 69 74 78 78 68 54 44 34 28 25 22 22 23 19 14 11 2 6 10 10 16 17 18 18 16 17
22 21 18 18 19 23 21 36 33 30 51 65 68 78 78 70 69 72 74 71 73 68 65 58 53 48 36 33 28 21 15 15 15 14 11 8 7 8 14 18 22 26 29 27
22 19 17 18 18 19 20 35 31 32 39 62 57 69 83 84 71 70 74 76 75 73 71 68 59 54 46 36 32 29 24 17 10 10 12 9 16 16 16 15 17 18 19 24
23 20 19 17 20 19 19 35 31 32 37 59 62 56 75 91 88 75 70 69 68 69 70 70 65 54 48 43 39 35 31 27 23 16 12 10 4 7 17 20 23 22 21 21
23 21 20 21 24 20 14 36 35 32 30 57 60 54 55 72 86 85 78 73 71 68 67 67 64 62 59 56 52 48 42 35 32 27 23 21 15 9 11 12 18 22 25 23
19 20 20 23 22 30 16 38 34 33 30 46 56 52 53 53 76 82 72 68 68 72 71 70 67 68 70 67 64 58 54 48 40 34 28 23 19 12 6 7 12 17 21 24
22 18 22 24 26 28 24 33 31 27 36 41 55 53 51 46 59 77 80 73 70 71 73 74 74 73 73 74 71 66 63 56 52 43 36 34 30 22 13 4 5 12 17 21
19 21 22 21 28 25 26 28 32 28 33 41 51 53 50 51 45 67 77 78 72 70 72 73 75 76 74 73 73 72 70 66 60 55 47 43 38 30 21 13 4 4 10 13
24 20 21 22 22 27 24 29 36 32 31 42 48 53 52 51 52 62 73 78 72 69 69 69 71 72 74 73 73 74 74 72 68 62 57 52 45 41 30 22 13 5 1 6
Wind_Direction_850mb
301 297 304 279 274 258 236 220 219 244 233 253 191 65 22 18 39 23 6 352 345 339 332 326 321 316 310 305 302 300 299 296 294 291 287 285 280 277 279 289 289 293 294 300
285 282 307 307 275 267 262 251 255 247 255 25 58 25 8 7 37 12 358 345 335 326 322 319 315 309 305 302 301 300 296 296 295 293 287 284 282 280 275 277 292 286 290 295
254 18 339 299 247 249 246 281 228 236 97 2 357 360 338 355 16 357 340 330 326 323 316 311 308 304 302 302 301 297 292 290 288 286 287 287 284 282 275 273 276 281 281 290
270 353 224 233 349 98 96 60 49 61 43 33 350 331 321 18 354 336 329 323 317 311 307 306 305 305 305 301 300 295 292 289 287 287 285 282 284 280 269 265 260 269 273 279
189 217 287 33 24 12 9 111 30 58 7 343 340 326 306 341 329 325 318 311 309 308 309 307 306 309 309 305 300 298 294 293 293 280 289 287 285 280 273 261 258 253 261 269
173 197 237 209 348 335 348 202 335 24 328 321 354 347 298 327 326 319 313 313 315 313 312 313 312 310 307 304 302 300 298 295 293 294 282 288 284 276 275 269 272 269 241 257
193 219 281 299 316 316 179 263 335 359 2 345 325 286 312 318 315 314 315 317 318 316 309 309 314 317 312 311 305 308 307 297 291 292 290 286 284 278 276 270 260 261 249 241
187 215 254 350 19 96 298 324 348 356 359 342 329 325 319 315 318 317 318 321 316 313 317 323 326 324 316 310 314 312 310 307 300 298 293 284 278 275 269 265 259 249 258 236
217 242 99 69 70 11 317 325 11 360 349 337 329 325 322 319 316 319 321 316 324 326 325 326 328 324 315 319 322 319 311 306 303 301 296 283 282 269 263 259 253 226 256 234
210 79 186 140 38 326 10 26 16 357 352 339 333 329 320 318 320 321 323 328 332 330 328 326 330 328 324 322 323 322 315 307 305 300 302 289 283 272 256 259 246 236 244 230
219 135 167 245 292 72 49 31 7 5 351 345 338 332 327 323 326 325 330 331 330 329 327 328 332 331 330 326 317 317 321 314 312 311 312 294 293 269 252 238 233 229 219 216
178 170 199 7 86 79 52 36 16 5 355 348 341 333 335 330 330 333 330 332 332 332 333 334 336 339 343 338 330 331 320 326 323 315 317 297 319 275 248 237 234 223 222 195
187 187 100 106 86 51 38 33 18 11 3 352 347 345 343 341 343 336 339 337 337 336 339 342 347 357 5 1 353 346 340 337 328 305 352 316 298 286 237 235 196 205 178 191
205 140 81 90 81 44 35 31 20 20 6 2 358 358 356 355 352 349 347 345 343 346 349 352 358 6 8 2 358 356 352 346 341 333 324 314 351 173 223 214 205 144 166 163
101 105 118 100 57 39 41 31 26 18 12 11 11 10 9 4 359 358 358 356 356 359 0 2 4 5 3 4 4 358 358 3 353 356 349 358 10 180 135 180 181 152 152 146
103 109 93 65 64 54 49 36 28 15 18 13 14 16 14 11 7 10 11 12 7 7 5 3 7 4 6 10 3 359 9 5 10 26 20 61 80 43 153 134 123 137 153 156
114 110 100 90 80 55 47 37 27 24 20 18 14 20 17 11 10 13 17 19 20 14 9 5 4 6 5 5 9 1 4 14 33 27 42 64 95 72 115 176 207 201 167 135
122 118 102 105 84 59 43 32 32 29 20 21 19 24 20 16 16 14 17 15 20 22 17 12 6 4 359 360 8 8 6 8 12 19 52 115 113 127 158 171 192 205 206 193
111 99 103 80 61 53 41 26 37 33 20 24 28 26 24 19 21 20 22 18 22 19 14 13 6 7 5 358 353 358 2 4 358 7 349 236 225 211 210 211 228 235 233 229
102 95 96 74 57 44 42 25 38 25 19 20 28 29 26 23 24 24 25 22 25 19 16 15 14 12 8 2 354 347 336 350 341 328 325 290 266 255 236 233 235 241 244 243
109 103 107 80 63 49 47 32 34 27 25 20 28 28 29 26 27 26 21 22 24 23 24 22 19 17 14 14 13 5 4 353 326 341 11 294 270 261 251 243 237 237 243 241
109 101 91 77 62 51 55 38 35 33 27 23 25 27 27 27 25 29 29 23 24 26 27 27 25 23 21 25 28 22 16 13 13 7 355 318 325 280 251 251 241 238 234 232
100 99 85 68 60 59 82 37 35 35 29 24 23 25 29 25 25 24 22 23 29 29 31 32 31 30 31 31 31 30 28 26 23 23 17 9 3 307 272 263 243 238 237 232
110 91 91 70 63 56 85 39 36 36 33 22 24 23 24 19 23 24 25 24 29 33 34 34 34 37 34 32 32 33 32 31 31 28 24 17 10 5 326 261 236 231 235 239
91 96 81 73 58 51 64 45 39 40 35 26 24 24 24 25 19 19 22 23 24 29 32 35 36 36 37 36 34 32 32 31 31 30 27 24 19 16 18 6 231 224 224 228
83 82 73 85 58 44 53 48 43 43 33 30 24 24 22 25 17 17 20 20 22 26 29 31 34 35 37 37 36 34 34 32 31 31 31 30 24 19 23 28 36 205 224 230
84 74 69 76 53 39 47 53 45 44 33 27 24 25 23 23 17 14 15 18 20 21 26 28 30 33 34 35 36 34 33 35 34 31 32 31 28 25 22 23 21 21 207 210